When you browse on this site, cookies collect data to enhance your experience and personalize the content and advertising you see.
Visit our Privacy Policy to learn more. By continuing to use the site, you agree to this use of cookies and data.
  • In Czech Republic
  • List of Countries
  • For 7 days
  • Water Temperature
  • Weather Map
  • Weather Widgets
  • user-avatar
    Login

    Hourly Weather Darwin

    Today, 14 November, Thursday

    Time Temperature Precipitation Wind Pressure Humidity
    00:00 +30°C° 0 mm 2 mps 758 mmHg 75%
    01:00 +29°C° 0.4 mm 3 mps 758 mmHg 78%
    02:00 +29°C° 0.4 mm 3 mps 757 mmHg 81%
    03:00 +28°C° 0 mm 3 mps 757 mmHg 85%
    04:00 +28°C° 0 mm 3 mps 757 mmHg 86%
    05:00 +28°C° 0 mm 2 mps 758 mmHg 86%
    06:00 +28°C° 0 mm 1 mps 758 mmHg 86%
    07:00 +30°C° 0 mm 1 mps 758 mmHg 76%
    08:00 +33°C° 0 mm 1 mps 759 mmHg 65%
    09:00 +35°C° 0 mm 1 mps 759 mmHg 54%
    10:00 +38°C° 0 mm 2 mps 758 mmHg 46%
    11:00 +40°C° 0 mm 2 mps 758 mmHg 39%
    12:00 +42°C° 0 mm 3 mps 757 mmHg 31%
    13:00 +39°C° 0 mm 3 mps 757 mmHg 39%
    14:00 +38°C° 0 mm 4 mps 756 mmHg 48%
    15:00 +36°C° 0 mm 5 mps 755 mmHg 56%
    16:00 +35°C° 0.1 mm 5 mps 755 mmHg 59%
    17:00 +34°C° 0.1 mm 5 mps 755 mmHg 61%
    18:00 +34°C° 0.1 mm 5 mps 755 mmHg 64%
    19:00 +33°C° 0 mm 4 mps 755 mmHg 68%
    20:00 +31°C° 0 mm 3 mps 756 mmHg 72%
    21:00 +30°C° 0 mm 3 mps 757 mmHg 76%
    22:00 +30°C° 0 mm 3 mps 757 mmHg 75%
    23:00 +31°C° 0 mm 2 mps 757 mmHg 73%

    Tomorrow, 15 November, Friday

    Time Temperature Precipitation Wind Pressure Humidity
    00:00 +31°C° 0 mm 2 mps 757 mmHg 72%
    01:00 +30°C° 0 mm 2 mps 757 mmHg 75%
    02:00 +29°C° 0 mm 3 mps 756 mmHg 77%
    03:00 +29°C° 0 mm 3 mps 756 mmHg 80%
    04:00 +29°C° 0 mm 2 mps 756 mmHg 81%
    05:00 +28°C° 0 mm 1 mps 756 mmHg 83%
    06:00 +26°C° 0 mm 0 mps 757 mmHg 84%
    07:00 +29°C° 0 mm 0 mps 757 mmHg 73%
    08:00 +33°C° 0 mm 1 mps 757 mmHg 62%
    09:00 +35°C° 0 mm 1 mps 758 mmHg 51%
    10:00 +38°C° 0 mm 2 mps 757 mmHg 42%
    11:00 +40°C° 0 mm 3 mps 757 mmHg 33%
    12:00 +43°C° 0 mm 4 mps 757 mmHg 23%
    13:00 +43°C° 0 mm 4 mps 756 mmHg 26%
    14:00 +42°C° 0 mm 4 mps 755 mmHg 28%
    15:00 +42°C° 0 mm 5 mps 754 mmHg 31%
    16:00 +39°C° 0 mm 5 mps 754 mmHg 42%
    17:00 +36°C° 0 mm 5 mps 755 mmHg 52%
    18:00 +34°C° 0 mm 5 mps 755 mmHg 63%
    19:00 +33°C° 0 mm 4 mps 756 mmHg 66%
    20:00 +33°C° 0 mm 4 mps 756 mmHg 70%
    21:00 +31°C° 0 mm 3 mps 757 mmHg 73%
    22:00 +31°C° 0 mm 3 mps 757 mmHg 74%
    23:00 +30°C° 0 mm 3 mps 758 mmHg 75%

    Day after tomorrow, 16 November, Saturday

    Time Temperature Precipitation Wind Pressure Humidity
    00:00 +30°C° 0 mm 3 mps 758 mmHg 76%
    01:00 +30°C° 0 mm 3 mps 757 mmHg 77%
    02:00 +29°C° 0 mm 2 mps 757 mmHg 78%
    03:00 +29°C° 0 mm 2 mps 756 mmHg 79%
    04:00 +29°C° 0 mm 2 mps 757 mmHg 80%
    05:00 +29°C° 0 mm 1 mps 757 mmHg 81%
    06:00 +28°C° 0 mm 1 mps 758 mmHg 82%
    07:00 +31°C° 0 mm 1 mps 758 mmHg 72%
    08:00 +33°C° 0 mm 1 mps 758 mmHg 61%
    09:00 +36°C° 0 mm 1 mps 759 mmHg 51%
    10:00 +37°C° 0 mm 1 mps 758 mmHg 43%
    11:00 +40°C° 0 mm 2 mps 758 mmHg 35%
    12:00 +43°C° 0 mm 3 mps 757 mmHg 27%
    13:00 +42°C° 0 mm 4 mps 756 mmHg 32%
    14:00 +41°C° 0 mm 4 mps 756 mmHg 36%
    15:00 +40°C° 0 mm 5 mps 755 mmHg 41%
    16:00 +37°C° 0 mm 5 mps 755 mmHg 49%
    17:00 +35°C° 0 mm 6 mps 755 mmHg 57%
    18:00 +34°C° 0 mm 6 mps 755 mmHg 65%
    19:00 +33°C° 0 mm 5 mps 756 mmHg 68%
    20:00 +32°C° 0 mm 4 mps 757 mmHg 71%
    21:00 +32°C° 0 mm 4 mps 758 mmHg 74%
    22:00 +32°C° 0 mm 4 mps 758 mmHg 75%
    23:00 +30°C° 0 mm 4 mps 758 mmHg 76%

    17 November, Sunday

    Time Temperature Precipitation Wind Pressure Humidity
    00:00 +30°C° 0 mm 4 mps 758 mmHg 77%
    01:00 +30°C° 0 mm 3 mps 758 mmHg 78%
    02:00 +29°C° 0 mm 3 mps 757 mmHg 78%
    03:00 +29°C° 0 mm 2 mps 757 mmHg 79%
    04:00 +29°C° 0 mm 2 mps 757 mmHg 80%
    05:00 +29°C° 0 mm 2 mps 758 mmHg 80%
    06:00 +28°C° 0 mm 1 mps 758 mmHg 81%
    07:00 +31°C° 0 mm 1 mps 758 mmHg 71%
    08:00 +33°C° 0 mm 1 mps 759 mmHg 61%
    09:00 +35°C° 0 mm 1 mps 759 mmHg 51%
    10:00 +38°C° 0 mm 2 mps 758 mmHg 45%
    11:00 +40°C° 0 mm 2 mps 758 mmHg 39%
    12:00 +42°C° 0 mm 3 mps 757 mmHg 32%
    13:00 +41°C° 0 mm 4 mps 757 mmHg 37%
    14:00 +40°C° 0 mm 5 mps 756 mmHg 42%
    15:00 +39°C° 0 mm 5 mps 755 mmHg 47%
    16:00 +36°C° 0 mm 5 mps 755 mmHg 53%
    17:00 +35°C° 0 mm 5 mps 755 mmHg 60%
    18:00 +33°C° 0 mm 6 mps 755 mmHg 66%
    19:00 +33°C° 0 mm 5 mps 756 mmHg 69%
    20:00 +32°C° 0 mm 4 mps 757 mmHg 72%
    21:00 +32°C° 0 mm 4 mps 757 mmHg 75%
    22:00 +30°C° 0 mm 4 mps 757 mmHg 75%
    23:00 +30°C° 0 mm 3 mps 758 mmHg 76%

    18 November, Monday

    Time Temperature Precipitation Wind Pressure Humidity
    00:00 +30°C° 0 mm 3 mps 758 mmHg 76%
    01:00 +29°C° 0 mm 3 mps 757 mmHg 76%
    02:00 +29°C° 0 mm 3 mps 757 mmHg 77%
    03:00 +29°C° 0 mm 3 mps 757 mmHg 77%
    04:00 +29°C° 0 mm 2 mps 757 mmHg 77%
    05:00 +28°C° 0 mm 2 mps 757 mmHg 78%
    06:00 +28°C° 0 mm 2 mps 757 mmHg 78%
    07:00 +31°C° 0 mm 1 mps 757 mmHg 68%
    08:00 +34°C° 0 mm 1 mps 758 mmHg 58%
    09:00 +36°C° 0 mm 1 mps 758 mmHg 47%
    10:00 +37°C° 0 mm 1 mps 758 mmHg 42%
    11:00 +39°C° 0 mm 2 mps 757 mmHg 37%
    12:00 +42°C° 0 mm 3 mps 757 mmHg 32%
    13:00 +39°C° 0 mm 3 mps 756 mmHg 38%
    14:00 +37°C° 0 mm 4 mps 756 mmHg 45%
    15:00 +35°C° 0 mm 4 mps 755 mmHg 52%
    16:00 +35°C° 0 mm 5 mps 755 mmHg 56%
    17:00 +34°C° 0 mm 5 mps 755 mmHg 60%
    18:00 +33°C° 0 mm 6 mps 755 mmHg 64%
    19:00 +33°C° 0 mm 5 mps 755 mmHg 67%
    20:00 +32°C° 0 mm 4 mps 756 mmHg 71%
    21:00 +30°C° 0 mm 4 mps 756 mmHg 74%
    22:00 +30°C° 0 mm 3 mps 756 mmHg 75%
    23:00 +30°C° 0 mm 3 mps 757 mmHg 76%

    19 November, Tuesday

    Time Temperature Precipitation Wind Pressure Humidity
    00:00 +29°C° 0 mm 2 mps 757 mmHg 77%
    01:00 +29°C° 0.3 mm 2 mps 756 mmHg 79%
    02:00 +28°C° 0.3 mm 2 mps 756 mmHg 81%
    03:00 +28°C° 0.3 mm 1 mps 755 mmHg 83%
    04:00 +28°C° 0 mm 1 mps 756 mmHg 83%
    05:00 +28°C° 0 mm 1 mps 756 mmHg 83%
    06:00 +28°C° 0 mm 2 mps 756 mmHg 82%
    07:00 +31°C° 0 mm 1 mps 756 mmHg 71%
    08:00 +33°C° 0 mm 1 mps 757 mmHg 60%
    09:00 +36°C° 0 mm 1 mps 757 mmHg 49%
    10:00 +38°C° 0 mm 2 mps 757 mmHg 43%
    11:00 +40°C° 0 mm 2 mps 756 mmHg 38%
    12:00 +42°C° 0 mm 3 mps 756 mmHg 32%
    13:00 +40°C° 0 mm 4 mps 755 mmHg 39%
    14:00 +37°C° 0 mm 4 mps 755 mmHg 47%
    15:00 +35°C° 0 mm 5 mps 754 mmHg 54%
    16:00 +35°C° 0 mm 5 mps 754 mmHg 58%
    17:00 +34°C° 0 mm 6 mps 754 mmHg 62%
    18:00 +33°C° 0 mm 6 mps 755 mmHg 65%
    19:00 +32°C° 0.1 mm 5 mps 755 mmHg 69%
    20:00 +32°C° 0.1 mm 4 mps 756 mmHg 73%
    21:00 +30°C° 0.1 mm 3 mps 756 mmHg 76%
    22:00 +30°C° 0.1 mm 3 mps 756 mmHg 78%
    23:00 +29°C° 0.1 mm 3 mps 756 mmHg 79%
    Show more